Content
SEND FEEDBACK

Daily
Averages
Monthly
Summary
United States of America

ST. LOUIS, MISSOURI


Home > North America > United States > Missouri
Elevation: 535 feet     Latitude: 38 45N     Longitude: 090 22W

WEATHER
 
SELECT A DAY
Number of Records: 200,489;   Date Range: 1/1/95 - 11/22/14
 
SHARE

PRINT THIS DATA

[ ← Previous Day ]
WEATHER ALMANAC - AUGUST 1, 2013
[ Next Day → ]
[ °C ]   °F
Weather ElementAverageHighLow
Temperature73 °F87.1 °F (3:54 pm)62.6 °F (5:31 am)
Dewpoint63.3 °F66.9 °F (8:54 pm)57 °F (4:54 pm)
Humidity75 %97 % (3:54 am)36 % (4:54 pm)
Barometer30.03 in30.07 in (7:54 am)29.97 in (7:54 pm)
Wind Speed1.5 mph5.8 mph (11:54 am)
Weather ElementAverage
Visibility8.8 mi
Wind DirectionENE (79.2 °)

Weather ElementTotal
Precipitation---
Cooling Degree Days9.8 (Base 65)
Growing Degree Days24.9 (Base 50)
Averaged from 26 records on August 1, 2013
WEATHER CONDITIONS BREAKOUT
WIND DIRECTION BREAKOUT
WEATHER BY HOUR - AUGUST 1, 2013
[ °C ]   °F
Local TimeTemperatureDewpointHumidityBarometerVisibilityWind DirectionWind SpeedGust SpeedPrecipitationEventsConditions
1:54 AM64.0 °F63.0 °F96 %30.02 in6.0 miCalmClear
2:54 AM64.0 °F63.0 °F96 %30.03 in10.0 miCalmClear
3:54 AM63.0 °F62.1 °F97 %30.02 in10.0 miCalmClear
4:54 AM63.0 °F62.1 °F97 %30.03 in9.0 miWNW (290°)3.5 mphClear
5:31 AM62.6 °F60.8 °F94 %30.05 in1.8 miCalmClear
5:43 AM62.6 °F60.8 °F94 %30.05 in0.5 miCalmFogFog
5:50 AM62.6 °F60.8 °F94 %30.06 in6.0 miCalmClear
5:54 AM63.0 °F62.1 °F97 %30.04 in6.0 miCalmClear
6:54 AM64.9 °F63.0 °F93 %30.05 in9.0 miCalmClear
7:54 AM69.1 °F64.9 °F87 %30.07 in10.0 miWest (270°)3.5 mphClear
8:54 AM73.0 °F66.0 °F79 %30.07 in10.0 miWNW (290°)3.5 mphClear
9:54 AM77.0 °F66.0 °F69 %30.07 in10.0 miWNW (290°)3.5 mphClear
10:54 AM80.1 °F66.0 °F62 %30.07 in10.0 miWest (270°)4.6 mphMostly Cloudy
11:54 AM82.0 °F66.0 °F58 %30.07 in10.0 miNW (310°)5.8 mphMostly Cloudy
12:54 PM84.0 °F66.0 °F55 %30.05 in10.0 miVariable3.5 mphMostly Cloudy
1:54 PM82.9 °F66.0 °F56 %30.04 in10.0 miVariable4.6 mphMostly Cloudy
2:54 PM84.9 °F62.1 °F46 %30.03 in10.0 miCalmPartly Cloudy
3:54 PM87.1 °F60.1 °F40 %30.01 in10.0 miNNW (340°)5.8 mphMostly Cloudy
4:54 PM87.1 °F57.0 °F36 %29.99 in10.0 miCalmClear
5:54 PM84.9 °F59.0 °F41 %29.98 in10.0 miCalmScattered Clouds
6:54 PM84.0 °F64.0 °F51 %29.98 in10.0 miCalmClear
7:54 PM77.0 °F64.9 °F66 %29.97 in10.0 miCalmScattered Clouds
8:54 PM72.0 °F66.9 °F84 %29.98 in10.0 miCalmClear
9:54 PM69.1 °F64.9 °F87 %29.98 in10.0 miCalmClear
10:54 PM68.0 °F64.0 °F87 %29.97 in10.0 miCalmClear
11:54 PM66.9 °F63.0 °F87 %29.98 in10.0 miCalmClear
Hourly data recorded from KSUS, located miles away from St. Louis, Missouri







STORIES FROM OUR PARTNERS